<?xml version="1.0" encoding="UTF-8" standalone="no" ?>
<gpx xmlns="http://www.topografix.com/GPX/1/1" xmlns:xsi="http://www.w3.org/2001/XMLSchema-instance" xsi:schemaLocation="http://www.topografix.com/GPX/1/1 http://www.topografix.com/GPX/1/1/gpx.xsd" version="1.1" creator="VisuGPX - https://www.visugpx.com">
  <metadata>
    <name>1ere etape</name>
    <desc><![CDATA[etape 1 lyon montpellier]]></desc>
  </metadata>
  <trk>
    <name><![CDATA[Lyon>Saint-Romain]]></name>
    <trkseg>
      <trkpt lat="45.75793" lon="4.83423">
        <ele>73.4000015</ele>
        <time>2013-04-23T07:46:05Z</time>
      </trkpt>
      <trkpt lat="45.7589" lon="4.83064">
        <ele>148.3999939</ele>
        <time>2013-04-23T08:10:10Z</time>
      </trkpt>
      <trkpt lat="45.75921" lon="4.82953">
        <ele>160.1999969</ele>
        <time>2013-04-23T08:10:38Z</time>
      </trkpt>
      <trkpt lat="45.75625" lon="4.82629">
        <ele>166.8000031</ele>
        <time>2013-04-23T08:11:57Z</time>
      </trkpt>
      <trkpt lat="45.75408" lon="4.82537">
        <ele>168.8000031</ele>
        <time>2013-04-23T08:13:29Z</time>
      </trkpt>
      <trkpt lat="45.75143" lon="4.82378">
        <ele>166.6000061</ele>
        <time>2013-04-23T08:14:22Z</time>
      </trkpt>
      <trkpt lat="45.75115" lon="4.82334">
        <ele>166.6000061</ele>
        <time>2013-04-23T08:14:47Z</time>
      </trkpt>
      <trkpt lat="45.75155" lon="4.82202">
        <ele>170.6000061</ele>
        <time>2013-04-23T08:15:17Z</time>
      </trkpt>
      <trkpt lat="45.75159" lon="4.82167">
        <ele>170.6000061</ele>
        <time>2013-04-23T08:15:29Z</time>
      </trkpt>
      <trkpt lat="45.75073" lon="4.81967">
        <ele>168.6000061</ele>
        <time>2013-04-23T08:17:00Z</time>
      </trkpt>
      <trkpt lat="45.74956" lon="4.8174">
        <ele>166.6000061</ele>
        <time>2013-04-23T08:17:38Z</time>
      </trkpt>
      <trkpt lat="45.74774" lon="4.81529">
        <ele>166.6000061</ele>
        <time>2013-04-23T08:19:23Z</time>
      </trkpt>
      <trkpt lat="45.74542" lon="4.81346">
        <ele>166.6000061</ele>
        <time>2013-04-23T08:20:10Z</time>
      </trkpt>
      <trkpt lat="45.74402" lon="4.81291">
        <ele>166.6000061</ele>
        <time>2013-04-23T08:20:36Z</time>
      </trkpt>
      <trkpt lat="45.73809" lon="4.81184">
        <ele>166.6000061</ele>
        <time>2013-04-23T08:22:26Z</time>
      </trkpt>
      <trkpt lat="45.73338" lon="4.81288">
        <ele>166.6000061</ele>
        <time>2013-04-23T08:23:51Z</time>
      </trkpt>
      <trkpt lat="45.73141" lon="4.81355">
        <ele>172.8000031</ele>
        <time>2013-04-23T08:24:40Z</time>
      </trkpt>
      <trkpt lat="45.73052" lon="4.8148">
        <ele>179</ele>
        <time>2013-04-23T08:26:36Z</time>
      </trkpt>
      <trkpt lat="45.72852" lon="4.81594">
        <ele>175.6000061</ele>
        <time>2013-04-23T08:28:28Z</time>
      </trkpt>
      <trkpt lat="45.7282" lon="4.81605">
        <ele>174</ele>
        <time>2013-04-23T08:28:32Z</time>
      </trkpt>
      <trkpt lat="45.71073" lon="4.82015">
        <ele>166.3999939</ele>
        <time>2013-04-23T08:33:41Z</time>
      </trkpt>
      <trkpt lat="45.70873" lon="4.82133">
        <ele>172.3999939</ele>
        <time>2013-04-23T08:34:29Z</time>
      </trkpt>
      <trkpt lat="45.70763" lon="4.82137">
        <ele>172.8000031</ele>
        <time>2013-04-23T08:34:53Z</time>
      </trkpt>
      <trkpt lat="45.70476" lon="4.82063">
        <ele>170.6000061</ele>
        <time>2013-04-23T08:35:55Z</time>
      </trkpt>
      <trkpt lat="45.70354" lon="4.82078">
        <ele>170.6000061</ele>
        <time>2013-04-23T08:36:18Z</time>
      </trkpt>
      <trkpt lat="45.69553" lon="4.8262">
        <ele>170.6000061</ele>
        <time>2013-04-23T08:39:07Z</time>
      </trkpt>
      <trkpt lat="45.695" lon="4.82607">
        <ele>170.6000061</ele>
        <time>2013-04-23T08:39:19Z</time>
      </trkpt>
      <trkpt lat="45.69408" lon="4.82724">
        <ele>172.8000031</ele>
        <time>2013-04-23T08:39:45Z</time>
      </trkpt>
      <trkpt lat="45.69391" lon="4.82736">
        <ele>172.8000031</ele>
        <time>2013-04-23T08:39:49Z</time>
      </trkpt>
      <trkpt lat="45.69302" lon="4.82748">
        <ele>170.8000031</ele>
        <time>2013-04-23T08:40:06Z</time>
      </trkpt>
      <trkpt lat="45.69184" lon="4.82743">
        <ele>170.8000031</ele>
        <time>2013-04-23T08:40:30Z</time>
      </trkpt>
      <trkpt lat="45.68967" lon="4.82694">
        <ele>170.8000031</ele>
        <time>2013-04-23T08:42:48Z</time>
      </trkpt>
      <trkpt lat="45.68727" lon="4.82678">
        <ele>169.6000061</ele>
        <time>2013-04-23T08:44:36Z</time>
      </trkpt>
      <trkpt lat="45.68413" lon="4.82773">
        <ele>166.6000061</ele>
        <time>2013-04-23T08:45:54Z</time>
      </trkpt>
      <trkpt lat="45.67845" lon="4.83137">
        <ele>166.6000061</ele>
        <time>2013-04-23T08:50:17Z</time>
      </trkpt>
      <trkpt lat="45.67444" lon="4.83068">
        <ele>173.1999969</ele>
        <time>2013-04-23T08:52:03Z</time>
      </trkpt>
      <trkpt lat="45.67316" lon="4.82997">
        <ele>179</ele>
        <time>2013-04-23T08:52:39Z</time>
      </trkpt>
      <trkpt lat="45.67156" lon="4.8289">
        <ele>179</ele>
        <time>2013-04-23T08:53:18Z</time>
      </trkpt>
      <trkpt lat="45.66911" lon="4.82839">
        <ele>183.1999969</ele>
        <time>2013-04-23T08:54:08Z</time>
      </trkpt>
      <trkpt lat="45.66747" lon="4.82825">
        <ele>181.1999969</ele>
        <time>2013-04-23T08:54:34Z</time>
      </trkpt>
      <trkpt lat="45.66518" lon="4.82622">
        <ele>181.1999969</ele>
        <time>2013-04-23T08:55:22Z</time>
      </trkpt>
      <trkpt lat="45.66367" lon="4.8256">
        <ele>181.1999969</ele>
        <time>2013-04-23T08:55:47Z</time>
      </trkpt>
      <trkpt lat="45.66309" lon="4.82528">
        <ele>179.3999939</ele>
        <time>2013-04-23T08:55:56Z</time>
      </trkpt>
      <trkpt lat="45.66096" lon="4.82353">
        <ele>179</ele>
        <time>2013-04-23T08:56:31Z</time>
      </trkpt>
      <trkpt lat="45.65587" lon="4.81749">
        <ele>189.1999969</ele>
        <time>2013-04-23T08:58:41Z</time>
      </trkpt>
      <trkpt lat="45.65508" lon="4.81579">
        <ele>187.1999969</ele>
        <time>2013-04-23T08:59:08Z</time>
      </trkpt>
      <trkpt lat="45.65404" lon="4.81562">
        <ele>185.6000061</ele>
        <time>2013-04-23T08:59:28Z</time>
      </trkpt>
      <trkpt lat="45.65356" lon="4.81513">
        <ele>189.3999939</ele>
        <time>2013-04-23T08:59:42Z</time>
      </trkpt>
      <trkpt lat="45.65236" lon="4.81356">
        <ele>187.3999939</ele>
        <time>2013-04-23T09:00:13Z</time>
      </trkpt>
      <trkpt lat="45.65195" lon="4.81331">
        <ele>185.6000061</ele>
        <time>2013-04-23T09:00:19Z</time>
      </trkpt>
      <trkpt lat="45.64983" lon="4.81206">
        <ele>181</ele>
        <time>2013-04-23T09:00:52Z</time>
      </trkpt>
      <trkpt lat="45.64766" lon="4.81191">
        <ele>176.8000031</ele>
        <time>2013-04-23T09:01:27Z</time>
      </trkpt>
      <trkpt lat="45.64543" lon="4.81077">
        <ele>178</ele>
        <time>2013-04-23T09:02:11Z</time>
      </trkpt>
      <trkpt lat="45.64475" lon="4.81011">
        <ele>180.8000031</ele>
        <time>2013-04-23T09:02:29Z</time>
      </trkpt>
      <trkpt lat="45.64244" lon="4.80976">
        <ele>185</ele>
        <time>2013-04-23T09:03:22Z</time>
      </trkpt>
      <trkpt lat="45.64088" lon="4.80814">
        <ele>189.1999969</ele>
        <time>2013-04-23T09:04:06Z</time>
      </trkpt>
      <trkpt lat="45.63875" lon="4.80708">
        <ele>195.1999969</ele>
        <time>2013-04-23T09:04:56Z</time>
      </trkpt>
      <trkpt lat="45.63643" lon="4.80614">
        <ele>195.1999969</ele>
        <time>2013-04-23T09:05:47Z</time>
      </trkpt>
      <trkpt lat="45.63635" lon="4.80597">
        <ele>194.8000031</ele>
        <time>2013-04-23T09:05:49Z</time>
      </trkpt>
      <trkpt lat="45.63601" lon="4.80555">
        <ele>192.8000031</ele>
        <time>2013-04-23T09:05:55Z</time>
      </trkpt>
      <trkpt lat="45.63531" lon="4.80575">
        <ele>191</ele>
        <time>2013-04-23T09:06:05Z</time>
      </trkpt>
      <trkpt lat="45.63402" lon="4.80432">
        <ele>189</ele>
        <time>2013-04-23T09:06:47Z</time>
      </trkpt>
      <trkpt lat="45.63333" lon="4.8041">
        <ele>189</ele>
        <time>2013-04-23T09:07:00Z</time>
      </trkpt>
      <trkpt lat="45.63084" lon="4.80396">
        <ele>180</ele>
        <time>2013-04-23T09:07:37Z</time>
      </trkpt>
      <trkpt lat="45.62923" lon="4.80352">
        <ele>178</ele>
        <time>2013-04-23T09:08:03Z</time>
      </trkpt>
      <trkpt lat="45.62859" lon="4.80398">
        <ele>181.8000031</ele>
        <time>2013-04-23T09:08:20Z</time>
      </trkpt>
      <trkpt lat="45.62576" lon="4.80319">
        <ele>186</ele>
        <time>2013-04-23T09:09:23Z</time>
      </trkpt>
      <trkpt lat="45.62328" lon="4.80253">
        <ele>186</ele>
        <time>2013-04-23T09:10:41Z</time>
      </trkpt>
      <trkpt lat="45.61992" lon="4.80146">
        <ele>176</ele>
        <time>2013-04-23T09:11:31Z</time>
      </trkpt>
      <trkpt lat="45.61853" lon="4.80111">
        <ele>171.1999969</ele>
        <time>2013-04-23T09:11:49Z</time>
      </trkpt>
      <trkpt lat="45.61674" lon="4.79978">
        <ele>171.1999969</ele>
        <time>2013-04-23T09:12:26Z</time>
      </trkpt>
      <trkpt lat="45.61235" lon="4.798">
        <ele>171.1999969</ele>
        <time>2013-04-23T09:13:55Z</time>
      </trkpt>
      <trkpt lat="45.61179" lon="4.79771">
        <ele>169.3999939</ele>
        <time>2013-04-23T09:14:06Z</time>
      </trkpt>
      <trkpt lat="45.61139" lon="4.79748">
        <ele>167.8000031</ele>
        <time>2013-04-23T09:14:12Z</time>
      </trkpt>
      <trkpt lat="45.60901" lon="4.79529">
        <ele>164.8000031</ele>
        <time>2013-04-23T09:14:56Z</time>
      </trkpt>
      <trkpt lat="45.60749" lon="4.7932">
        <ele>162.8000031</ele>
        <time>2013-04-23T09:15:41Z</time>
      </trkpt>
      <trkpt lat="45.60628" lon="4.78968">
        <ele>162.8000031</ele>
        <time>2013-04-23T09:16:39Z</time>
      </trkpt>
      <trkpt lat="45.60571" lon="4.78985">
        <ele>162.8000031</ele>
        <time>2013-04-23T09:16:51Z</time>
      </trkpt>
      <trkpt lat="45.60503" lon="4.79106">
        <ele>167.3999939</ele>
        <time>2013-04-23T09:17:21Z</time>
      </trkpt>
      <trkpt lat="45.60492" lon="4.79114">
        <ele>169</ele>
        <time>2013-04-23T09:17:25Z</time>
      </trkpt>
      <trkpt lat="45.60359" lon="4.79112">
        <ele>169</ele>
        <time>2013-04-23T09:17:59Z</time>
      </trkpt>
      <trkpt lat="45.6019" lon="4.78753">
        <ele>162.6000061</ele>
        <time>2013-04-23T09:18:48Z</time>
      </trkpt>
      <trkpt lat="45.59976" lon="4.78579">
        <ele>162.6000061</ele>
        <time>2013-04-23T09:19:42Z</time>
      </trkpt>
      <trkpt lat="45.59864" lon="4.78408">
        <ele>162.6000061</ele>
        <time>2013-04-23T09:20:02Z</time>
      </trkpt>
      <trkpt lat="45.59801" lon="4.78272">
        <ele>162.6000061</ele>
        <time>2013-04-23T09:20:25Z</time>
      </trkpt>
      <trkpt lat="45.59711" lon="4.78112">
        <ele>162.6000061</ele>
        <time>2013-04-23T09:20:56Z</time>
      </trkpt>
      <trkpt lat="45.59409" lon="4.77381">
        <ele>162.6000061</ele>
        <time>2013-04-23T09:22:56Z</time>
      </trkpt>
      <trkpt lat="45.59262" lon="4.77273">
        <ele>162.6000061</ele>
        <time>2013-04-23T09:23:35Z</time>
      </trkpt>
      <trkpt lat="45.59147" lon="4.77308">
        <ele>160.6000061</ele>
        <time>2013-04-23T09:24:01Z</time>
      </trkpt>
      <trkpt lat="45.59107" lon="4.7745">
        <ele>160.6000061</ele>
        <time>2013-04-23T09:29:01Z</time>
      </trkpt>
      <trkpt lat="45.59047" lon="4.77469">
        <ele>160.6000061</ele>
        <time>2013-04-23T09:29:19Z</time>
      </trkpt>
      <trkpt lat="45.58995" lon="4.77583">
        <ele>160.6000061</ele>
        <time>2013-04-23T09:29:44Z</time>
      </trkpt>
      <trkpt lat="45.58656" lon="4.77429">
        <ele>160.6000061</ele>
        <time>2013-04-23T09:32:46Z</time>
      </trkpt>
      <trkpt lat="45.5857" lon="4.77483">
        <ele>160.6000061</ele>
        <time>2013-04-23T09:33:58Z</time>
      </trkpt>
      <trkpt lat="45.58421" lon="4.7765">
        <ele>155</ele>
      </trkpt>
      <trkpt lat="45.58225" lon="4.7775">
        <ele>160.6000061</ele>
        <time>2013-04-23T09:44:38Z</time>
      </trkpt>
      <trkpt lat="45.58058" lon="4.77891">
        <ele>165.1999969</ele>
        <time>2013-04-23T09:52:01Z</time>
      </trkpt>
      <trkpt lat="45.58006" lon="4.7801">
        <ele>163.1999969</ele>
        <time>2013-04-23T09:52:21Z</time>
      </trkpt>
      <trkpt lat="45.57816" lon="4.78548">
        <ele>168.6000061</ele>
        <time>2013-04-23T09:55:42Z</time>
      </trkpt>
      <trkpt lat="45.57624" lon="4.78742">
        <ele>169.6000061</ele>
        <time>2013-04-23T09:55:44Z</time>
      </trkpt>
      <trkpt lat="45.57456" lon="4.79001">
        <ele>171.6000061</ele>
        <time>2013-04-23T09:56:01Z</time>
      </trkpt>
      <trkpt lat="45.57284" lon="4.79278">
        <ele>169.6000061</ele>
        <time>2013-04-23T09:56:59Z</time>
      </trkpt>
      <trkpt lat="45.57184" lon="4.7935">
        <ele>173.8000031</ele>
        <time>2013-04-23T09:57:29Z</time>
      </trkpt>
      <trkpt lat="45.57131" lon="4.79349">
        <ele>173.8000031</ele>
        <time>2013-04-23T09:57:44Z</time>
      </trkpt>
      <trkpt lat="45.57013" lon="4.79473">
        <ele>173.8000031</ele>
        <time>2013-04-23T09:58:13Z</time>
      </trkpt>
      <trkpt lat="45.56605" lon="4.7976">
        <ele>173.8000031</ele>
        <time>2013-04-23T09:59:49Z</time>
      </trkpt>
      <trkpt lat="45.56587" lon="4.79888">
        <ele>173.8000031</ele>
        <time>2013-04-23T10:00:15Z</time>
      </trkpt>
      <trkpt lat="45.56544" lon="4.80002">
        <ele>170.6000061</ele>
        <time>2013-04-23T10:00:34Z</time>
      </trkpt>
      <trkpt lat="45.56361" lon="4.80211">
        <ele>167.6000061</ele>
        <time>2013-04-23T10:01:16Z</time>
      </trkpt>
      <trkpt lat="45.56299" lon="4.8027">
        <ele>165.6000061</ele>
        <time>2013-04-23T10:02:23Z</time>
      </trkpt>
      <trkpt lat="45.56244" lon="4.8043">
        <ele>165.6000061</ele>
        <time>2013-04-23T10:02:55Z</time>
      </trkpt>
      <trkpt lat="45.55985" lon="4.80564">
        <ele>169.8000031</ele>
        <time>2013-04-23T10:04:11Z</time>
      </trkpt>
      <trkpt lat="45.56048" lon="4.80829">
        <ele>164.1999969</ele>
        <time>2013-04-23T10:04:52Z</time>
      </trkpt>
      <trkpt lat="45.56106" lon="4.80945">
        <ele>161.1999969</ele>
        <time>2013-04-23T10:05:51Z</time>
      </trkpt>
      <trkpt lat="45.56136" lon="4.81205">
        <ele>161.1999969</ele>
        <time>2013-04-23T10:09:23Z</time>
      </trkpt>
      <trkpt lat="45.55543" lon="4.81628">
        <ele>161.1999969</ele>
        <time>2013-04-23T10:11:45Z</time>
      </trkpt>
      <trkpt lat="45.5529" lon="4.82015">
        <ele>161.1999969</ele>
        <time>2013-04-23T10:13:01Z</time>
      </trkpt>
      <trkpt lat="45.55191" lon="4.82139">
        <ele>161.1999969</ele>
        <time>2013-04-23T10:13:27Z</time>
      </trkpt>
      <trkpt lat="45.55044" lon="4.82381">
        <ele>161.1999969</ele>
        <time>2013-04-23T10:14:24Z</time>
      </trkpt>
      <trkpt lat="45.54709" lon="4.82686">
        <ele>161.1999969</ele>
        <time>2013-04-23T10:15:43Z</time>
      </trkpt>
      <trkpt lat="45.54668" lon="4.82925">
        <ele>161.1999969</ele>
        <time>2013-04-23T10:16:29Z</time>
      </trkpt>
      <trkpt lat="45.54429" lon="4.83278">
        <ele>161.1999969</ele>
        <time>2013-04-23T10:17:52Z</time>
      </trkpt>
      <trkpt lat="45.54265" lon="4.83612">
        <ele>161.1999969</ele>
        <time>2013-04-23T10:18:50Z</time>
      </trkpt>
      <trkpt lat="45.54163" lon="4.83916">
        <ele>159.1999969</ele>
        <time>2013-04-23T10:19:35Z</time>
      </trkpt>
      <trkpt lat="45.54068" lon="4.84343">
        <ele>159.1999969</ele>
        <time>2013-04-23T10:20:44Z</time>
      </trkpt>
      <trkpt lat="45.53946" lon="4.85353">
        <ele>159.1999969</ele>
        <time>2013-04-23T10:23:29Z</time>
      </trkpt>
      <trkpt lat="45.53942" lon="4.85373">
        <ele>159.1999969</ele>
        <time>2013-04-23T10:24:00Z</time>
      </trkpt>
      <trkpt lat="45.53919" lon="4.85483">
        <ele>108</ele>
        <time>2013-04-23T11:20:23Z</time>
      </trkpt>
      <trkpt lat="45.53832" lon="4.85462">
        <ele>157.1999969</ele>
        <time>2013-04-23T11:21:51Z</time>
      </trkpt>
      <trkpt lat="45.53725" lon="4.86138">
        <ele>159</ele>
        <time>2013-04-23T11:25:02Z</time>
      </trkpt>
      <trkpt lat="45.53477" lon="4.86792">
        <ele>159</ele>
        <time>2013-04-23T11:27:14Z</time>
      </trkpt>
      <trkpt lat="45.53319" lon="4.87012">
        <ele>159</ele>
        <time>2013-04-23T11:28:09Z</time>
      </trkpt>
      <trkpt lat="45.53115" lon="4.8717">
        <ele>159</ele>
        <time>2013-04-23T11:30:31Z</time>
      </trkpt>
      <trkpt lat="45.52881" lon="4.87131">
        <ele>159</ele>
        <time>2013-04-23T11:32:06Z</time>
      </trkpt>
      <trkpt lat="45.52621" lon="4.86965">
        <ele>159</ele>
        <time>2013-04-23T11:33:27Z</time>
      </trkpt>
      <trkpt lat="45.52543" lon="4.8691">
        <ele>149.9101563</ele>
      </trkpt>
    </trkseg>
  </trk>
</gpx>